Regional Weather Roundup
Issued by NWS

Home | Current Version | Previous Version | Graphics & Text | Print | Product List | Glossary On
Versions: 1 2 3 4 5 6 7 8 9 10 11 12 13 14 15 16 17 18 19 20 21 22 23 24 25 26 27 28
000
ASUS45 KSLC 240610
RWRUT

UTAH REGIONAL WEATHER ROUNDUP
NATIONAL WEATHER SERVICE SALT LAKE CITY UT
1200 AM MDT THU APR 24 2014

UTZ001>011-023>025-240700-

NORTHERN UTAH

CITY           SKY/WX    TMP DP  RH WIND       PRES   REMARKS
HILL AFB       CLEAR     40  21  45 E10       30.08R WCI  34
LOGAN          CLEAR     36  27  69 E5        30.07S WCI  32
OGDEN          CLEAR     40  24  53 S8        30.07S WCI  34
PROVO AIRPORT  PTCLDY    37  23  56 E5        30.10S WCI  34
SALT LAKE CITY PTCLDY    44  21  40 SE3       30.08R
VERNAL         CLEAR     34  14  43 SW6       30.06R WCI  29
WENDOVER       PTCLDY    45  16  31 W5        30.06S
HEBER CITY     CLEAR     28  19  69 CALM      30.10S
WEST JORDAN    CLEAR     36  25  64 CALM      30.09S

$$

UTZ012>022-026-027-240700-

SOUTHERN UTAH

CITY           SKY/WX    TMP DP  RH WIND       PRES   REMARKS
BRYCE CANYON   CLEAR     22   8  55 W7        30.12R WCI  13
CEDAR CITY     CLEAR     34  11  38 CALM      30.06R
MILFORD        CLEAR     37   8  30 CALM      30.06R
MOAB/CYNLANDS  CLEAR     44   7  21 W12       30.03R
PRICE          CLEAR     35   9  33 N9        30.07S WCI  28
ST GEORGE      CLEAR     63  16  16 N6        29.99R
KANAB            N/A     46  14  27 NW9       30.09R

$$

REGIONAL REPORTS     COLORADO/ARIZONA

CITY           SKY/WX    TMP DP  RH WIND       PRES   REMARKS
CRAIG, CO      CLEAR     28  16  60 CALM      30.08R
GRAND JUNCTION CLEAR     42  11  28 W14       30.03R
RIFLE          CLEAR     42  12  29 NW12      30.05R
MONTROSE       CLEAR     37  14  38 SE7       30.07R WCI  32
CORTEZ         CLEAR     35  13  40 CALM      30.04S
PAGE, AZ       CLEAR     57  10  15 VRB6      30.01R
GRAND CANYON   PTCLDY    28   9  44 CALM      30.09R
KINGMAN        PTCLDY    50   6  16 SE7       29.99R
FLAGSTAFF      CLEAR     34  11  38 E5        30.08S WCI  30

$$

REGIONAL REPORTS    NEVADA/IDAHO/WYOMING

CITY           SKY/WX    TMP DP  RH WIND       PRES   REMARKS
LAS VEGAS, NV  MOCLDY    69  16  13 SW9       29.90R
ELY            CLEAR     30  15  53 S8        30.08R WCI  22
ELKO           PTCLDY    37  27  67 CALM      30.04S
POCATELLO, ID  CLEAR     42  26  53 S15       30.03S
BURLEY         PTCLDY    36  29  75 S7        30.00F WCI  30
EVANSTON, WY   CLEAR     25  16  68 SW10      30.08S WCI  15
ROCK SPRINGS   CLEAR     33  15  47 W15G25    30.06R WCI  23

$$



USA.gov is the U.S. government's official web portal to all federal, state and local government web resources and services.